Location: Kellogg
(38.0159°N, 90.0546°W)
Time: 07:09:37
(UTC+00:00)

S-56A Canister/Altair - Pass Details

Date: 13 September 2024
Orbit: 636 x 2487 km, 38.9° (Epoch: 09 October)

Event Time Altitude Azimuth Distance (km) Brightness Sun altitude
Rises 02:59:12 0° 268° (W) 3,664 11.7 -31.6°
Reaches altitude 10° 03:01:25 10° 269° (W) 2,898 11.0 -32.0°
Maximum altitude 03:08:39 85° 358° (N) 1,426 8.7 -33.1°
Enters shadow 03:09:57 70° 74° (ENE) 1,564 8.7 -33.3°
Drops below altitude 10° 03:19:55 10° 88° (E) 4,368 - -34.9°
Sets 03:24:01 0° 89° (E) 5,618 - -35.5°
